Home > Weather > Irving > Past weeks

Flag for USA Past Weather in Irving, Texas, USA — Yesterday and Last 2 Weeks

Now
89 °F

Passing clouds.


Feels Like: 94 °F
Forecast: 76 / 93 °F
Wind: 14 mph from Southwest

Location: Dallas / Fort Worth International Airport

Current Time: Aug 24, 2016 at 1:14:41 PM

Latest Report: Aug 24, 2016 at 11:53 AM


Visibility: 10 mi

Pressure: 30.08 "Hg

Humidity: 53%

Dew Point: 70 °F

Location of IrvingLocation

Past Weather in Irving — Graph

°F

Irving Temperature Yesterday

Maximum temperature yesterday: 94 °F (at 3:53 PM)
Minimum temperature yesterday: 79 °F (at 12:53 AM)
Average temperature yesterday: 85 °F

High & Low Weather Summary for the Past Weeks

 TemperatureHumidityPressure
High107 °F (Aug 12, 2:53 PM)93% (Aug 19, 5:04 PM)30.12 "Hg (Aug 19, 5:04 PM)
Low70 °F (Aug 19, 5:04 PM)26% (Aug 11, 6:53 PM)29.69 "Hg (Aug 12, 4:53 PM)
Average83 °F68%29.94 "Hg
* Reported Aug 9 11:53 AM — Aug 24 11:53 AM, Irving, Weather by CustomWeather, © 2016

Note: Actual official high and low records may vary slightly from our data, if they occured in-between our weather recording intervals... More about our weather records

Advertising

Irving Weather History for the Previous 24 Hours

Scroll right to see more
 ConditionsComfort  
Time TempWeatherWind HumidityBarometerVisibility
11:53 AM
Wed, Aug 24
89 °FPassing clouds.14 mph53%30.08 "Hg10 mi
10:53 AM85 °FPassing clouds.15 mph61%30.09 "Hg10 mi
9:53 AM82 °FScattered clouds.16 mph67%30.09 "Hg10 mi
8:53 AM79 °FPartly sunny.16 mph77%30.07 "Hg10 mi
7:53 AM77 °FPassing clouds.13 mph82%30.05 "Hg10 mi
6:53 AM75 °FPassing clouds.9 mph85%30.04 "Hg10 mi
5:53 AM76 °FPassing clouds.9 mph82%30.03 "Hg10 mi
4:53 AM78 °FPassing clouds.12 mph79%30.03 "Hg10 mi
3:53 AM79 °FPassing clouds.10 mph77%30.04 "Hg10 mi
2:53 AM81 °FPassing clouds.17 mph72%30.05 "Hg10 mi
1:53 AM81 °FPassing clouds.13 mph72%30.05 "Hg10 mi
12:53 AM82 °FPassing clouds.13 mph72%30.06 "Hg10 mi
11:53 PM
Tue, Aug 23
83 °FClear.14 mph70%30.04 "Hg10 mi
10:53 PM84 °FClear.10 mph67%30.04 "Hg10 mi
9:53 PM85 °FClear.12 mph59%30.03 "Hg10 mi
8:53 PM87 °FPassing clouds.10 mph55%30.01 "Hg10 mi
7:53 PM89 °FPassing clouds.16 mph50%29.98 "Hg10 mi
6:53 PM91 °FPassing clouds.18 mph47%29.98 "Hg10 mi
5:53 PM93 °FScattered clouds.18 mph44%29.99 "Hg10 mi
4:53 PM93 °FScattered clouds.21 mph46%30.00 "Hg10 mi
3:53 PM94 °FScattered clouds.20 mph46%30.01 "Hg10 mi
2:53 PM91 °FPartly sunny.16 mph52%30.03 "Hg10 mi
1:53 PM91 °FPartly sunny.21 mph54%30.06 "Hg10 mi
Weather by CustomWeather, © 2016

See weather overviewHow to use our weather pages